Starlink 3850

operational
NORAD ID: 52342 Int'l Des: 2022-045 Owner: SPXS Country: US Constellation: starlink
LEOCIRCULAR

关于 Starlink 3850

正在加载描述...

实时位置

正在加载3D地球...

即将过境

高度历史

Altitude vs Time

uPlot chart will show altitude changes over time

两行轨道根数

1 52342U 22045M 25298.39727753 -.00001580 00000-0 -81228-4 0 9999
2 52342 53.2157 86.5872 0001251 92.2229 267.8907 15.08833098195359
Epoch: Oct 25, 2025 • Age: 13 hours

当前状态

高度 542.9 km
速度 7.59 km/s
星下点 -10.61°S, 68.75°E
发射日期 Apr 29, 2022
运行时间 3.4 years
类型 internet

技术详情

分类 Payload
质量 297.00 kg
干质量 275.00 kg
总质量 297.00 kg
长度 0.20 m
直径 2.80 m
跨度 9.00 m
形状 Box + pan
制造商 SPXS
平台类型 Starlink
阶段状态 In Orbit
所有者/国家 SPXS/US

大型星座

Loading constellations...